Flag for Slovenia Weather past 2 weeks in Maribor, Slovenia

Now
69 °F

Scattered clouds.


Feels Like: 69 °F
Forecast: 50 / 61 °F
Wind: 8 mph from Southwest

Location: Maribor / Slivnica

Current Time: Apr 27, 2015 at 12:37:20 PM

Latest Report: Apr 27, 2015 at 12:00 PM


Visibility: 13 mi

Pressure: 29.72 "Hg

Humidity: 45%

Dew point: 47 °F

Location of MariborLocation

Historic Weather in Maribor — Graph

°F

Maribor temperature yesterday

Maximum temperature yesterday: 72 °F (at 4:00 PM)
Minimum temperature yesterday: 51 °F (at 6:00 AM)
Average temperature yesterday: 62 °F

Past Weeks' High & Low Weather Summary

 TemperatureHumidityPressure
High78 °F (Apr 16, 3:00 PM)97% (Apr 25, 4:00 AM)30.44 "Hg (Apr 25, 4:00 AM)
Low31 °F (Apr 20, 6:00 AM)21% (Apr 21, 6:00 PM)29.71 "Hg (Apr 27, 9:00 AM)
Average56 °F57%30.07 "Hg
* Reported Apr 12 11:00 AM — Apr 27 11:00 AM, Maribor, Weather by CustomWeather, © 2015

Note: Actual official high and low records may vary slightly from our data, if they occured in-between our weather recording intervals... More about our weather records

Advertising

Maribor weather history for previous 24 hours

 ConditionsComfort  
Time TempWeatherWind HumidityBarometerVisibility
11:00 AM
Mon, Apr 27
68 °FScattered clouds.7 mph48%29.72 "Hg12 mi
10:00 AM65 °FScattered clouds.9 mph53%29.72 "Hg12 mi
9:00 AM64 °FScattered clouds.10 mph55%29.71 "Hg12 mi
8:00 AM61 °FScattered clouds.6 mph64%29.73 "Hg12 mi
7:00 AM58 °FScattered clouds.5 mph71%29.74 "Hg12 mi
6:00 AM56 °FScattered clouds.6 mph74%29.75 "Hg12 mi
5:00 AM56 °FCool.5 mph72%29.75 "Hg17 mi
4:00 AM58 °FCool.5 mph70%29.76 "Hg19 mi
3:00 AM58 °FCool.3 mph68%29.77 "Hg17 mi
2:00 AM56 °FCool.6 mph72%29.78 "Hg19 mi
1:00 AM51 °FCool.5 mph79%29.80 "Hg14 mi
12:00 AM56 °FCool.6 mph69%29.79 "Hg22 mi
10:00 PM
Sun, Apr 26
59 °FPassing clouds.6 mph63%29.79 "Hg19 mi
9:00 PM61 °FPassing clouds.6 mph60%29.79 "Hg19 mi
8:00 PM63 °FPassing clouds.6 mph54%29.78 "Hg25 mi
7:00 PM66 °FPassing clouds.7 mph49%29.77 "Hg28 mi
6:00 PM69 °FPassing clouds.8 mph44%29.77 "Hg28 mi
5:00 PM70 °FPassing clouds.8 mph43%29.77 "Hg28 mi
4:00 PM72 °FPassing clouds.8 mph42%29.78 "Hg31 mi
3:00 PM72 °FScattered clouds.6 mph42%29.80 "Hg31 mi
2:00 PM71 °FScattered clouds.6 mph40%29.82 "Hg31 mi
1:00 PM70 °FScattered clouds.6 mph42%29.84 "Hg31 mi
12:00 PM69 °FScattered clouds.5 mph44%29.85 "Hg31 mi
Weather by CustomWeather, © 2015

See weather overviewHow to use our weather pages